This is the latest recevied weather packets stored in our database for station/object SQ2LXT-10. If no packets are shown the sender has not sent any weather packets the latest 10 day(s).
| Time | Temp. | Humidity | Pressure | Rain* | Wind** | Luminosity | Snow |
|---|---|---|---|---|---|---|---|
| 1778178683 | 7.78° C | 100% | 1011.3 hPa | - | - | - | - |
| 1778177759 | 7.78° C | 100% | 1011.3 hPa | - | - | - | - |
| 1778176859 | 8.33° C | 100% | 1010.9 hPa | - | - | - | - |
| 1778175962 | 8.89° C | 100% | 1010.7 hPa | - | - | - | - |
| 1778175059 | 8.89° C | 100% | 1010.6 hPa | - | - | - | - |
| 1778174159 | 9.44° C | 100% | 1010.4 hPa | - | - | - | - |
| 1778173259 | 9.44° C | 100% | 1010.2 hPa | - | - | - | - |
| 1778172359 | 9.44° C | 100% | 1010.1 hPa | - | - | - | - |
| 1778171459 | 9.44° C | 100% | 1010.1 hPa | - | - | - | - |
| 1778169659 | 10.56° C | 100% | 1010 hPa | - | - | - | - |
| 1778168759 | 10.56° C | 100% | 1010.1 hPa | - | - | - | - |
| 1778167859 | 10.56° C | 100% | 1010 hPa | - | - | - | - |
| 1778166960 | 11.11° C | 100% | 1009.9 hPa | - | - | - | - |
| 1778166062 | 10.56° C | 100% | 1009.9 hPa | - | - | - | - |
| 1778165158 | 10° C | 100% | 1010 hPa | - | - | - | - |
| 1778164258 | 10.56° C | 100% | 1009.8 hPa | - | - | - | - |
| 1778163358 | 11.11° C | 100% | 1010 hPa | - | - | - | - |
| 1778162462 | 10.56° C | 100% | 1009.9 hPa | - | - | - | - |
| 1778160658 | 11.11° C | 100% | 1009.8 hPa | - | - | - | - |
| 1778158857 | 11.11° C | 100% | 1009.5 hPa | - | - | - | - |
| 1778157958 | 10.56° C | 100% | 1009.4 hPa | - | - | - | - |
| 1778157057 | 10.56° C | 100% | 1009.3 hPa | - | - | - | - |
| 1778156157 | 10° C | 100% | 1009.1 hPa | - | - | - | - |
| 1778155257 | 10.56° C | 100% | 1009.2 hPa | - | - | - | - |
| 1778153457 | 10.56° C | 100% | 1008.7 hPa | - | - | - | - |
* Rain since midnight (hover to see other rain measurements)
** Current wind speed in m/s (hover to see current wind gust speed)